Regional Weather Roundup
Issued by NWS

Home | Current Version | Previous Version | Graphics & Text | Print | Product List | Glossary On
Versions: 1 2 3 4 5 6 7 8 9 10 11 12 13 14 15 16 17 18 19 20 21 22 23 24 25 26 27
000
ASUS45 KCYS 242110
RWRWY

WYOMING REGIONAL WEATHER ROUNDUP
NATIONAL WEATHER SERVICE CHEYENNE WY
300 PM MDT MON JUL 24 2017

NOTE:  "FAIR" INDICATES FEW OR NO CLOUDS BELOW 12,000 FEET
WITH NO SIGNIFICANT WEATHER AND/OR OBSTRUCTIONS TO VISIBILITY.

WYZ001-242200-
YELLOWSTONE NATIONAL PARK

CITY           SKY/WX    TMP DP  RH WIND       PRES   REMARKS
LK YELLOWSTONE   N/A     81  28  14 VRB5      30.25S
W YELLOWSTONE  NOT AVBL

$$
WYZ002>013-054>058-071-098>099-242200-
NORTHERN WYOMING

CITY           SKY/WX    TMP DP  RH WIND       PRES   REMARKS
JACKSON        SUNNY     82  30  15 SW5       30.13F
CODY           FAIR      90  37  15 VRB3      29.97F
GREYBULL       FAIR      98  32  10 CALM      29.87F HX  92
WORLAND        FAIR      98  32  10 VRB5      29.87F HX  92
SHERIDAN       FAIR      94  40  15 NW10      29.92S HX  90
BUFFALO        FAIR      93  37  14 N12       29.99S
GILLETTE       FAIR      96  34  11 W8G16     29.92S HX  91
HULETT         FAIR      95  37  13 NW7       29.92F HX  90
NEWCASTLE      FAIR      97  28   9 NW18G24   29.91F HX  91

$$
WYZ014>020-022>026-101>103-242200-
CENTRAL WYOMING

CITY           SKY/WX    TMP DP  RH WIND       PRES   REMARKS
BIG PINEY      PTSUNNY   80  36  20 NW17G28   30.21S
PINEDALE       MOCLDY    73  37  27 NE12G26   30.22S
DUBOIS         FAIR      82  16   8 N21G26    30.17F
LANDER         FAIR      91  36  14 W13       30.03F
RIVERTON       FAIR      93  28  10 MISG      30.01F
CASPER         FAIR      95  26   8 W9G21     30.00F
DOUGLAS        FAIR      97  28   8 NW12G28   29.98F HX  91

$$
WYZ021-027>030-104>119-242200-
SOUTHERN WYOMING

CITY           SKY/WX    TMP DP  RH WIND       PRES   REMARKS
EVANSTON       FAIR      82  37  20 S7        30.20F
KEMMERER         N/A     82  30  15 SW8       30.21F
FORT BRIDGER   MOCLDY    85  31  14 SW15G21   30.23F
ROCK SPRINGS   FAIR      87  34  15 SW16G24   30.17F
RAWLINS        FAIR      86  32  14 SW13G21   30.18F
SARATOGA       FAIR      88  32  13 W12G20    30.21S
LARAMIE        PTSUNNY   83  34  17 NW8       30.20F
CHEYENNE       FAIR      90  30  11 CALM      30.09F
TORRINGTON     FAIR     100  28   8 W12       29.91F HX  93
PINE BLUFFS    FAIR      97  34  11 NE5       30.02F HX  91

$$




USA.gov is the U.S. government's official web portal to all federal, state and local government web resources and services.